Location: *
(55.6049°S, 142.1985°W)
Time: 14:51:37
(UTC+00:00)

AQUARIUS - Pass Details

Date: 12 May 2021
Orbit: 650 x 652 km, 98.0° (Epoch: 18 June)

Event Time Altitude Azimuth Distance (km) Brightness Sun altitude
Rises 14:31:56 0° 21° (NNE) 2,980 7.8 -22.5°
Reaches altitude 10° 14:34:09 10° 22° (NNE) 2,076 7.0 -22.2°
Maximum altitude 14:38:41 79° 108° (ESE) 683 4.2 -21.5°
Drops below altitude 10° 14:43:16 10° 194° (SSW) 2,102 6.6 -20.9°
Enters shadow 14:44:01 - 194° (SSW) 2,404 6.9 -20.8°
